Location: *
(40.4000°N, 15.1200°E)
Time: 04:31:22
(UTC+00:00)

CZ-2C R/B - Pass Details

Date: 09 April 2020
Orbit: 705 x 907 km, 98.1° (Epoch: 27 May)

Event Time Altitude Azimuth Distance (km) Brightness Sun altitude
Exits shadow 18:29:42 - 163° (SSE) 3,177 5.8 -11.3°
Rises 18:29:43 0° 163° (SSE) 3,172 5.8 -11.3°
Reaches altitude 10° 18:32:01 10° 162° (SSE) 2,229 5.0 -11.7°
Maximum altitude 18:36:53 80° 76° (ENE) 732 2.8 -12.5°
Drops below altitude 10° 18:41:39 10° 350° (N) 2,186 5.8 -13.4°
Sets 18:43:54 0° 349° (N) 3,105 6.7 -13.8°
